ONEWEB-0276 (48994 NORAD) Tracking and Keplerian Element Data

This shows tracking and keplerian element data for the satellite.

Feedback or suggestion? Click here.




ElementValue
Catalog48994
NameONEWEB-0276
Epoch Orbit567
Epoch Day211.25001157
Epoch Year2021
RAAN227.4243
Inclination87.4471
Eccentricity0.0010996
Argument of Perigee145.6684
Mean Anonmoly151.9528
Mean Motion14.95913527
Decay Rate-0.01502447
L11 48994U 21060AD 21211.25001157 -.01502447 00000-0 -14544+0 0 9993
L22 48994 87.4471 227.4243 0010996 145.6684 151.9528 14.95913527 5675

Live tracking and technical data element details for ONEWEB-0276 (NORAD 48994). ONEWEB-0276 can be tracked NOW for your location showing map with azimuth and elevation plus other details from your city location.

Track the satellite on the map from your city or location and see movement details for azimuth, elevation, latitude, longitude, range, height, and movement on the map or in text.







IsCatalogInMostPopularTable: catalog: 48994, numindb: 3
Update: records affected: 1



GetName: 48994 ONEWEB-0276

Hit Count: updated at: Sat, 31 Jul 2021 14:14:31 GMT